M I D A S
Marine Information and Data Acquisition System
Tripno 1182 of the Zeeleeuw from 2006-12-21 07:38:37 to 2006-12-21 14:01:52
Back to CruiseResearch ActivitiesStationsMapUnderway DataData graphs

EquipmentUnitsComments
TimeDGPSUTC
LatitudeDGPSDM.mWGS84
LongitudeDGPSDM.mWGS84
SpeedMeteo Stationm/sRelative wind speed
DirectionMeteo StationdegRelative wind direction
TemperatureMeteo Stationdeg CelciusAir temperature
PressureMeteo StationPaAtmospheric pressure
HumidityMeteo Station%Relative humidity
Missing or incorrect values are displayed as -999
Metereological data collected by the RV Zeeleeuw from 2006-12-21 07:37:35 to 2006-12-21 14:10:29
Time Latitude Longitude Speed Direction Temperature Pressure Humidity
2006-12-21 07:38 51°13.611 2°56.042 0.9 37 7.1 104080 84
2006-12-21 07:39 51°13.637 2°55.936 1 31 7.1 104080 83
2006-12-21 07:40 51°13.686 2°55.811 1.4 37 7.2 104080 83
2006-12-21 07:41 51°13.726 2°55.717 1.1 36 7.1 104080 82
2006-12-21 07:42 51°13.737 2°55.719 1.3 336 7.1 104090 82
2006-12-21 07:43 51°13.736 2°55.699 0.2 347 7.1 104090 82
2006-12-21 07:44 51°13.791 2°55.671 2.8 339 7.1 104090 82
2006-12-21 07:45 51°13.905 2°55.584 4.7 338 7.1 104090 82
2006-12-21 07:46 51°14.039 2°55.487 4.2 338 7.1 104090 82
2006-12-21 07:47 51°14.17 2°55.383 4.2 341 7 104090 83
2006-12-21 07:48 51°14.294 2°55.218 3.6 336 7 104090 83
2006-12-21 07:49 51°14.4 2°55.007 4.4 334 7 104090 83
2006-12-21 07:50 51°14.52 2°54.741 5 336 7 104090 83
2006-12-21 07:51 51°14.693 2°54.548 4.8 336 7 104100 84
2006-12-21 07:52 51°14.879 2°54.347 5 337 7.1 104100 85
2006-12-21 07:53 51°15.063 2°54.173 4.4 334 7.2 104100 84
2006-12-21 07:54 51°15.244 2°53.981 4.5 333 7.2 104100 84
2006-12-21 07:55 51°15.433 2°53.794 5.1 333 7.3 104100 83
2006-12-21 07:56 51°15.624 2°53.611 5.1 334 7.4 104100 83
2006-12-21 07:57 51°15.825 2°53.423 4.9 331 7.4 104100 83
2006-12-21 07:58 51°16.02 2°53.23 4.4 331 7.5 104100 82
2006-12-21 07:59 51°16.216 2°53.042 5.6 332 7.5 104100 81
2006-12-21 08:00 51°16.412 2°52.872 5.3 332 7.5 104100 82
2006-12-21 08:01 51°16.615 2°52.705 5.2 330 7.6 104100 81
2006-12-21 08:02 51°16.815 2°52.582 5.1 334 7.6 104110 81
2006-12-21 08:03 51°17.026 2°52.51 5.6 335 7.7 104110 82
2006-12-21 08:04 51°17.237 2°52.471 5.4 341 7.7 104110 82
2006-12-21 08:05 51°17.451 2°52.45 6 342 7.8 104100 79
2006-12-21 08:06 51°17.663 2°52.463 5.6 343 7.9 104100 78
2006-12-21 08:07 51°17.873 2°52.497 4.9 340 8 104110 77
2006-12-21 08:08 51°18.08 2°52.548 5.3 338 8 104110 77
2006-12-21 08:09 51°18.251 2°52.729 7.3 342 8 104110 78
2006-12-21 08:10 51°18.369 2°52.997 10.5 341 8 104100 80
2006-12-21 08:11 51°18.473 2°53.283 11.8 342 8.1 104090 78
2006-12-21 08:12 51°18.581 2°53.562 11.1 342 8.1 104080 76
2006-12-21 08:13 51°18.687 2°53.843 10.7 343 8.1 104090 77
2006-12-21 08:14 51°18.79 2°54.127 10.1 339 8.2 104090 78
2006-12-21 08:15 51°18.886 2°54.417 11.1 342 8.2 104100 78
2006-12-21 08:16 51°18.978 2°54.708 10.5 343 8.1 104090 76
2006-12-21 08:17 51°19.069 2°54.997 10.4 340 8.2 104100 76
2006-12-21 08:18 51°19.154 2°55.292 10.3 340 8.2 104110 77
2006-12-21 08:19 51°19.238 2°55.587 9.2 339 8.2 104100 75
2006-12-21 08:20 51°19.322 2°55.88 9.9 340 8.1 104100 76
2006-12-21 08:21 51°19.406 2°56.175 9.7 340 8.2 104110 76
2006-12-21 08:22 51°19.49 2°56.472 9.5 341 8.1 104110 78
2006-12-21 08:23 51°19.576 2°56.771 9.1 341 8.1 104120 78
2006-12-21 08:24 51°19.662 2°57.071 8.3 337 8.1 104120 78
2006-12-21 08:25 51°19.75 2°57.374 8.8 338 8.1 104120 77
2006-12-21 08:26 51°19.84 2°57.676 8.5 338 8.1 104120 77
2006-12-21 08:27 51°19.929 2°57.979 7.9 338 8.1 104130 78
2006-12-21 08:28 51°20.018 2°58.284 8.9 336 8.1 104120 78
2006-12-21 08:29 51°20.107 2°58.587 9.5 337 8.1 104120 74
2006-12-21 08:30 51°20.196 2°58.891 8.9 337 8.3 104130 74
2006-12-21 08:31 51°20.285 2°59.195 8.3 336 8.3 104130 74
2006-12-21 08:32 51°20.375 2°59.502 9 339 8.3 104130 73
2006-12-21 08:33 51°20.464 2°59.807 8.7 338 8.3 104130 75
2006-12-21 08:34 51°20.554 3°0.112 8.9 338 8.3 104130 74
2006-12-21 08:35 51°20.643 3°0.419 9.2 337 8.3 104130 73
2006-12-21 08:36 51°20.733 3°0.726 8.1 338 8.3 104130 70
2006-12-21 08:37 51°20.82 3°1.033 8.2 336 8.3 104140 71
2006-12-21 08:38 51°20.894 3°1.351 8.1 336 8.3 104140 72
2006-12-21 08:39 51°20.967 3°1.666 8 336 8.3 104140 72
2006-12-21 08:40 51°21.04 3°1.978 7.9 336 8.3 104140 73
2006-12-21 08:41 51°21.112 3°2.292 7.7 336 8.3 104140 73
2006-12-21 08:42 51°21.187 3°2.607 7.9 335 8.3 104140 73
2006-12-21 08:43 51°21.261 3°2.921 7.3 335 8.3 104140 74
2006-12-21 08:44 51°21.335 3°3.237 8.2 335 8.3 104140 73
2006-12-21 08:45 51°21.409 3°3.555 8 335 8.3 104150 71
2006-12-21 08:46 51°21.482 3°3.874 8.5 334 8.3 104150 72
2006-12-21 08:47 51°21.548 3°4.198 8.3 334 8.3 104140 71
2006-12-21 08:48 51°21.613 3°4.522 9 334 8.4 104140 71
2006-12-21 08:49 51°21.668 3°4.851 8.4 332 8.4 104140 71
2006-12-21 08:50 51°21.724 3°5.179 9.1 334 8.3 104150 72
2006-12-21 08:51 51°21.776 3°5.508 8.9 333 8.4 104150 72
2006-12-21 08:52 51°21.821 3°5.839 8.9 333 8.3 104150 73
2006-12-21 08:53 51°21.867 3°6.169 9 330 8.3 104160 73
2006-12-21 08:54 51°21.911 3°6.499 8.9 334 8.3 104160 74
2006-12-21 08:55 51°21.954 3°6.83 8.4 334 8.3 104150 76
2006-12-21 08:56 51°21.995 3°7.164 8.7 333 8.2 104150 75
2006-12-21 08:57 51°22.035 3°7.502 8.5 333 8.2 104160 76
2006-12-21 08:58 51°22.074 3°7.843 8.4 336 8.2 104150 76
2006-12-21 08:59 51°22.113 3°8.184 8.3 334 8.2 104160 77
2006-12-21 09:00 51°22.154 3°8.526 8.3 333 8.2 104160 77
2006-12-21 09:01 51°22.196 3°8.87 8.6 333 8.2 104160 77
2006-12-21 09:02 51°22.236 3°9.217 9.3 335 8.2 104160 78
2006-12-21 09:03 51°22.276 3°9.566 8.9 333 8.2 104160 77
2006-12-21 09:04 51°22.318 3°9.916 9.2 334 8.2 104160 79
2006-12-21 09:05 51°22.358 3°10.269 9.8 333 8.2 104160 77
2006-12-21 09:06 51°22.405 3°10.625 8.9 330 8.2 104150 74
2006-12-21 09:07 51°22.45 3°10.978 9.4 332 8.2 104160 75
2006-12-21 09:08 51°22.494 3°11.331 8.5 332 8.3 104160 75
2006-12-21 09:09 51°22.57 3°11.67 9.9 333 8.2 104160 76
2006-12-21 09:10 51°22.71 3°11.951 9.8 338 8.3 104170 70
2006-12-21 09:11 51°22.876 3°12.188 8.8 337 8.3 104160 70
2006-12-21 09:12 51°23.04 3°12.425 10 339 8.4 104170 70
2006-12-21 09:13 51°23.202 3°12.664 8.6 338 8.4 104170 72
2006-12-21 09:14 51°23.364 3°12.902 9.4 337 8.4 104170 73
2006-12-21 09:15 51°23.573 3°12.968 9.1 339 8.3 104170 72
2006-12-21 09:16 51°23.792 3°12.889 7.4 339 8.3 104180 67
2006-12-21 09:17 51°24.013 3°12.808 7.1 337 8.4 104180 66
2006-12-21 09:18 51°24.239 3°12.727 7.8 342 8.4 104180 65
2006-12-21 09:19 51°24.468 3°12.647 9 341 8.4 104180 66
2006-12-21 09:20 51°24.698 3°12.568 8.5 342 8.4 104180 66
2006-12-21 09:21 51°24.925 3°12.498 10.6 345 8.4 104180 66
2006-12-21 09:22 51°25.114 3°12.322 5.4 350 8.4 104180 64
2006-12-21 09:23 51°25.19 3°12.005 2.6 330 8.4 104200 64
2006-12-21 09:24 51°25.137 3°11.649 3.2 320 8.5 104200 64
2006-12-21 09:25 51°25.067 3°11.294 2.7 323 8.4 104190 64
2006-12-21 09:26 51°24.972 3°10.95 3.8 31 8.5 104190 65
2006-12-21 09:27 51°24.882 3°10.606 2.1 320 8.5 104190 65
2006-12-21 09:28 51°24.816 3°10.253 2.6 322 8.4 104190 65
2006-12-21 09:29 51°24.74 3°9.9 2.6 319 8.5 104190 66
2006-12-21 09:30 51°24.675 3°9.541 2.8 328 8.5 104190 67
2006-12-21 09:31 51°24.618 3°9.177 3.7 333 8.5 104190 68
2006-12-21 09:32 51°24.582 3°8.808 3.7 331 8.5 104190 67
2006-12-21 09:33 51°24.562 3°8.436 2.9 336 8.5 104190 68
2006-12-21 09:34 51°24.569 3°8.064 3.7 341 8.5 104190 67
2006-12-21 09:35 51°24.614 3°7.708 7 344 8.5 104190 69
2006-12-21 09:36 51°24.78 3°7.49 7.8 343 8.5 104180 70
2006-12-21 09:37 51°24.974 3°7.342 7.5 348 8.5 104180 71
2006-12-21 09:38 51°25.163 3°7.193 7.1 345 8.5 104170 69
2006-12-21 09:39 51°25.359 3°7.06 7.3 345 8.5 104180 72
2006-12-21 09:40 51°25.561 3°6.944 6.9 342 8.5 104170 67
2006-12-21 09:41 51°25.763 3°6.83 7.3 340 8.5 104170 69
2006-12-21 09:42 51°25.966 3°6.746 7.5 341 8.5 104180 70
2006-12-21 09:43 51°26.157 3°6.867 9.3 344 8.5 104170 71
2006-12-21 09:44 51°26.313 3°7.088 9.4 342 8.5 104160 68
2006-12-21 09:45 51°26.432 3°7.366 9.8 339 8.5 104160 69
2006-12-21 09:46 51°26.537 3°7.658 10.1 342 8.5 104170 68
2006-12-21 09:47 51°26.665 3°7.927 9.9 342 8.5 104170 68
2006-12-21 09:48 51°26.793 3°8.197 10.3 344 8.5 104170 68
2006-12-21 09:49 51°26.913 3°8.476 9.8 342 8.5 104170 66
2006-12-21 09:50 51°27.044 3°8.729 8 348 8.5 104160 68
2006-12-21 09:51 51°27.242 3°8.735 4.9 344 8.5 104180 66
2006-12-21 09:52 51°27.429 3°8.574 5.1 339 8.5 104180 68
2006-12-21 09:53 51°27.613 3°8.39 5 337 8.4 104180 68
2006-12-21 09:54 51°27.796 3°8.202 5 342 8.5 104180 67
2006-12-21 09:55 51°27.98 3°8.015 4.2 341 8.4 104180 68
2006-12-21 09:56 51°28.164 3°7.823 4.3 341 8.4 104190 68
2006-12-21 09:57 51°28.349 3°7.63 4.4 339 8.4 104190 68
2006-12-21 09:58 51°28.533 3°7.434 4.2 337 8.4 104190 70
2006-12-21 09:59 51°28.717 3°7.241 4.5 336 8.4 104180 70
2006-12-21 10:00 51°28.901 3°7.046 4.1 340 8.4 104190 69
2006-12-21 10:01 51°29.085 3°6.85 4.2 335 8.5 104190 70
2006-12-21 10:02 51°29.271 3°6.657 4.1 332 8.5 104180 70
2006-12-21 10:03 51°29.459 3°6.467 4 334 8.5 104190 70
2006-12-21 10:04 51°29.65 3°6.282 4 335 8.5 104190 70
2006-12-21 10:05 51°29.769 3°6.273 4.8 355 8.5 104180 70
2006-12-21 10:06 51°29.773 3°6.401 5.8 350 8.5 104180 69
2006-12-21 10:07 51°29.737 3°6.582 7.7 332 8.5 104180 69
2006-12-21 10:08 51°29.619 3°6.648 7 327 8.5 104180 70
2006-12-21 10:09 51°29.511 3°6.71 6.7 330 8.5 104180 68
2006-12-21 10:10 51°29.43 3°6.784 5.8 339 8.5 104180 68
2006-12-21 10:11 51°29.404 3°6.955 6.9 347 8.5 104180 69
2006-12-21 10:12 51°29.552 3°7.036 3.3 334 8.5 104180 70
2006-12-21 10:13 51°29.691 3°6.78 3.6 333 8.5 104180 71
2006-12-21 10:14 51°29.858 3°6.546 4.1 326 8.5 104180 70
2006-12-21 10:15 51°30.027 3°6.311 4.3 327 8.5 104180 69
2006-12-21 10:16 51°30.199 3°6.079 3.9 326 8.5 104180 69
2006-12-21 10:17 51°30.371 3°5.848 3.9 326 8.5 104180 68
2006-12-21 10:18 51°30.542 3°5.615 4.4 325 8.5 104180 68
2006-12-21 10:19 51°30.716 3°5.385 3.6 325 8.5 104180 68
2006-12-21 10:20 51°30.892 3°5.163 3.8 330 8.5 104170 67
2006-12-21 10:21 51°31.076 3°4.956 5 327 8.5 104180 68
2006-12-21 10:22 51°31.265 3°4.758 4.5 329 8.5 104180 68
2006-12-21 10:23 51°31.455 3°4.567 4.3 329 8.5 104180 68
2006-12-21 10:24 51°31.65 3°4.389 4.3 328 8.5 104180 67
2006-12-21 10:25 51°31.848 3°4.215 4.1 334 8.6 104180 68
2006-12-21 10:26 51°32.045 3°4.046 3.6 329 8.6 104180 68
2006-12-21 10:27 51°32.244 3°3.882 4.2 330 8.6 104170 68
2006-12-21 10:28 51°32.443 3°3.726 3.9 331 8.6 104170 69
2006-12-21 10:29 51°32.639 3°3.562 4 316 8.6 104170 69
2006-12-21 10:30 51°32.592 3°3.294 8.9 325 8.6 104160 69
2006-12-21 10:31 51°32.409 3°3.386 8.5 336 8.6 104160 69
2006-12-21 10:32 51°32.289 3°3.569 7.2 336 8.6 104150 69
2006-12-21 10:33 51°32.211 3°3.67 4.1 324 8.6 104160 67
2006-12-21 10:34 51°32.218 3°3.677 3.4 31 8.6 104170 67
2006-12-21 10:35 51°32.187 3°3.644 2 264 8.6 104160 67
2006-12-21 10:36 51°32.173 3°3.65 3.2 35 8.6 104170 67
2006-12-21 10:37 51°32.174 3°3.613 2.3 39 8.6 104170 67
2006-12-21 10:38 51°32.171 3°3.597 2 37 8.6 104170 67
2006-12-21 10:39 51°32.209 3°3.519 2.3 34 8.6 104160 68
2006-12-21 10:40 51°32.318 3°3.274 5.4 324 8.7 104150 68
2006-12-21 10:41 51°32.4 3°2.942 6.4 320 8.7 104160 68
2006-12-21 10:42 51°32.426 3°2.577 6.4 321 8.7 104150 68
2006-12-21 10:43 51°32.447 3°2.211 6.4 317 8.7 104160 68
2006-12-21 10:44 51°32.458 3°1.843 6.9 316 8.7 104160 69
2006-12-21 10:45 51°32.468 3°1.475 6.2 37 8.7 104160 70
2006-12-21 10:46 51°32.48 3°1.105 6.1 318 8.7 104150 69
2006-12-21 10:47 51°32.452 3°0.736 7.7 319 8.6 104160 69
2006-12-21 10:48 51°32.402 3°0.37 6.8 317 8.7 104150 69
2006-12-21 10:49 51°32.354 3°0.002 7.3 317 8.6 104150 68
2006-12-21 10:50 51°32.307 2°59.636 7.1 315 8.6 104140 70
2006-12-21 10:51 51°32.263 2°59.272 6.9 37 8.6 104150 69
2006-12-21 10:52 51°32.22 2°58.907 7 315 8.6 104140 69
2006-12-21 10:53 51°32.178 2°58.542 7.2 30 8.6 104130 68
2006-12-21 10:54 51°32.135 2°58.179 7 29 8.6 104150 69
2006-12-21 10:55 51°32.128 2°57.822 4.7 37 8.6 104140 69
2006-12-21 10:56 51°32.209 2°57.497 4.3 319 8.6 104150 70
2006-12-21 10:57 51°32.33 2°57.213 3 332 8.6 104160 68
2006-12-21 10:58 51°32.533 2°57.166 5.3 352 8.7 104150 70
2006-12-21 10:59 51°32.705 2°57.366 8.9 350 8.6 104140 70
2006-12-21 11:00 51°32.814 2°57.682 9 347 8.6 104130 69
2006-12-21 11:01 51°32.937 2°57.985 8.1 349 8.6 104120 68
2006-12-21 11:02 51°33.072 2°58.273 8.4 349 8.6 104120 68
2006-12-21 11:03 51°33.222 2°58.538 8.4 349 8.6 104120 69
2006-12-21 11:04 51°33.374 2°58.803 7.9 352 8.6 104110 68
2006-12-21 11:05 51°33.525 2°59.067 8 350 8.6 104110 68
2006-12-21 11:06 51°33.675 2°59.331 8.7 349 8.7 104110 68
2006-12-21 11:07 51°33.838 2°59.574 8.1 352 8.7 104110 69
2006-12-21 11:08 51°34.004 2°59.81 8.3 352 8.7 104110 68
2006-12-21 11:09 51°34.171 3°0.047 9.3 351 8.7 104100 69
2006-12-21 11:10 51°34.346 3°0.256 7.8 355 8.7 104110 69
2006-12-21 11:11 51°34.551 3°0.262 2.9 353 8.7 104110 69
2006-12-21 11:12 51°34.71 3°0.03 2.5 325 8.7 104130 68
2006-12-21 11:13 51°34.824 2°59.731 4.2 38 8.7 104120 69
2006-12-21 11:14 51°34.885 2°59.389 6.3 38 8.7 104120 68
2006-12-21 11:15 51°34.803 2°59.059 7.1 35 8.7 104120 68
2006-12-21 11:16 51°34.681 2°58.747 8.4 29 8.7 104120 68
2006-12-21 11:17 51°34.56 2°58.436 8.6 33 8.7 104110 67
2006-12-21 11:18 51°34.44 2°58.125 8.2 317 8.7 104120 67
2006-12-21 11:19 51°34.321 2°57.812 9 317 8.8 104120 68
2006-12-21 11:20 51°34.203 2°57.498 8.6 318 8.8 104120 69
2006-12-21 11:21 51°34.085 2°57.184 8 317 8.7 104120 67
2006-12-21 11:22 51°33.969 2°56.872 8.8 315 8.7 104110 68
2006-12-21 11:23 51°33.852 2°56.562 8.3 319 8.7 104110 67
2006-12-21 11:24 51°33.727 2°56.261 9.3 315 8.8 104110 68
2006-12-21 11:25 51°33.603 2°55.962 9 317 8.8 104110 68
2006-12-21 11:26 51°33.478 2°55.663 8.7 316 8.8 104110 68
2006-12-21 11:27 51°33.354 2°55.367 8.3 33 8.8 104110 68
2006-12-21 11:28 51°33.229 2°55.071 8.2 32 8.7 104100 68
2006-12-21 11:29 51°33.107 2°54.774 8.7 31 8.8 104120 68
2006-12-21 11:30 51°32.986 2°54.48 8.8 318 8.7 104100 68
2006-12-21 11:31 51°32.866 2°54.183 8.8 317 8.7 104110 68
2006-12-21 11:32 51°32.741 2°53.893 8.4 316 8.7 104100 68
2006-12-21 11:33 51°32.614 2°53.606 9.1 317 8.7 104100 68
2006-12-21 11:34 51°32.488 2°53.319 9 32 8.7 104090 69
2006-12-21 11:35 51°32.365 2°53.031 8.4 315 8.7 104100 68
2006-12-21 11:36 51°32.241 2°52.746 8.6 319 8.7 104090 68
2006-12-21 11:37 51°32.119 2°52.46 8.8 316 8.7 104090 69
2006-12-21 11:38 51°31.996 2°52.17 8.4 317 8.8 104090 69
2006-12-21 11:39 51°31.874 2°51.883 7.5 33 8.8 104090 68
2006-12-21 11:40 51°31.753 2°51.593 7.5 36 8.7 104090 68
2006-12-21 11:41 51°31.634 2°51.305 7.6 317 8.7 104090 68
2006-12-21 11:42 51°31.514 2°51.017 8.1 31 8.7 104090 68
2006-12-21 11:43 51°31.396 2°50.727 7.5 30 8.7 104090 68
2006-12-21 11:44 51°31.277 2°50.438 7.8 315 8.8 104100 68
2006-12-21 11:45 51°31.16 2°50.15 7.6 315 8.8 104090 68
2006-12-21 11:46 51°31.047 2°49.861 7 316 8.8 104090 68
2006-12-21 11:47 51°30.946 2°49.561 8 31 8.8 104100 67
2006-12-21 11:48 51°30.847 2°49.26 7.2 36 8.8 104100 67
2006-12-21 11:49 51°30.75 2°48.958 7.8 35 8.7 104100 67
2006-12-21 11:50 51°30.654 2°48.659 7.6 33 8.7 104100 67
2006-12-21 11:51 51°30.552 2°48.365 7.5 30 8.7 104090 67
2006-12-21 11:52 51°30.442 2°48.079 7.4 37 8.8 104090 68
2006-12-21 11:53 51°30.333 2°47.794 8 316 8.8 104090 67
2006-12-21 11:54 51°30.225 2°47.508 7.4 31 8.8 104090 68
2006-12-21 11:55 51°30.137 2°47.208 6.2 27 8.8 104080 68
2006-12-21 11:56 51°30.103 2°46.878 5.3 316 8.8 104090 69
2006-12-21 11:57 51°30.167 2°46.563 3.6 333 8.8 104100 68
2006-12-21 11:58 51°30.349 2°46.367 3.7 337 8.8 104090 68
2006-12-21 11:59 51°30.55 2°46.185 4 334 8.8 104100 68
2006-12-21 12:00 51°30.758 2°46.098 6.6 349 8.8 104100 68
2006-12-21 12:01 51°30.909 2°46.395 9.3 342 8.7 104080 67
2006-12-21 12:02 51°31.001 2°46.77 9.4 344 8.8 104080 69
2006-12-21 12:03 51°31.108 2°47.136 9.3 346 8.8 104070 68
2006-12-21 12:04 51°31.234 2°47.487 9.3 344 8.8 104080 68
2006-12-21 12:05 51°31.36 2°47.836 9.5 345 8.8 104080 68
2006-12-21 12:06 51°31.486 2°48.184 9.5 346 8.8 104070 68
2006-12-21 12:07 51°31.614 2°48.532 9.4 349 8.7 104060 68
2006-12-21 12:08 51°31.739 2°48.881 9.2 348 8.7 104070 67
2006-12-21 12:09 51°31.867 2°49.231 9.1 344 8.7 104070 68
2006-12-21 12:10 51°31.994 2°49.58 8.2 346 8.7 104070 68
2006-12-21 12:11 51°32.123 2°49.927 9 347 8.7 104080 68
2006-12-21 12:12 51°32.25 2°50.276 8.9 344 8.7 104080 69
2006-12-21 12:13 51°32.378 2°50.624 9.5 345 8.7 104080 67
2006-12-21 12:14 51°32.506 2°50.969 8.8 344 8.7 104080 67
2006-12-21 12:15 51°32.636 2°51.313 8.8 343 8.7 104080 68
2006-12-21 12:16 51°32.765 2°51.659 10.2 343 8.8 104070 68
2006-12-21 12:17 51°32.895 2°52.003 8.9 344 8.7 104080 68
2006-12-21 12:18 51°33.026 2°52.347 8.8 342 8.8 104080 68
2006-12-21 12:19 51°33.156 2°52.694 10.1 342 8.8 104080 68
2006-12-21 12:20 51°33.242 2°53.073 10.8 338 8.8 104090 67
2006-12-21 12:21 51°33.22 2°53.466 11 333 8.8 104090 68
2006-12-21 12:22 51°33.108 2°53.806 11.4 330 8.8 104080 68
2006-12-21 12:23 51°32.95 2°54.076 11.3 327 8.7 104060 67
2006-12-21 12:24 51°32.772 2°54.317 11.3 327 8.7 104070 67
2006-12-21 12:25 51°32.595 2°54.562 10.7 328 8.8 104070 68
2006-12-21 12:26 51°32.408 2°54.791 11.3 325 8.7 104070 68
2006-12-21 12:27 51°32.22 2°54.988 10.5 326 8.8 104070 68
2006-12-21 12:28 51°32.026 2°55.183 10.2 326 8.7 104070 68
2006-12-21 12:29 51°31.831 2°55.385 11.6 325 8.7 104050 69
2006-12-21 12:30 51°31.641 2°55.581 10.8 327 8.7 104070 68
2006-12-21 12:31 51°31.44 2°55.768 10.1 327 8.7 104070 67
2006-12-21 12:32 51°31.242 2°55.943 10.2 326 8.7 104080 68
2006-12-21 12:33 51°31.042 2°56.118 11.1 325 8.7 104070 69
2006-12-21 12:34 51°30.839 2°56.268 9.4 320 8.7 104070 68
2006-12-21 12:35 51°30.629 2°56.331 9.3 320 8.7 104070 69
2006-12-21 12:36 51°30.423 2°56.307 9.4 322 8.7 104070 69
2006-12-21 12:37 51°30.213 2°56.296 10.1 319 8.7 104080 69
2006-12-21 12:38 51°30.005 2°56.288 8.9 320 8.7 104070 69
2006-12-21 12:39 51°29.834 2°56.139 6.2 27 8.6 104090 68
2006-12-21 12:40 51°29.87 2°55.859 2.8 337 8.6 104100 69
2006-12-21 12:41 51°30.008 2°55.72 1 4 8.6 104110 67
2006-12-21 12:42 51°30.106 2°55.669 0.8 329 8.6 104100 67
2006-12-21 12:43 51°30.103 2°55.493 6.5 316 8.6 104100 67
2006-12-21 12:44 51°29.922 2°55.448 8.4 320 8.6 104080 68
2006-12-21 12:45 51°29.709 2°55.454 9.5 319 8.6 104080 68
2006-12-21 12:46 51°29.499 2°55.455 8.5 320 8.6 104080 68
2006-12-21 12:47 51°29.288 2°55.459 9 320 8.6 104070 68
2006-12-21 12:48 51°29.078 2°55.457 8.6 322 8.6 104070 69
2006-12-21 12:49 51°28.87 2°55.451 8.8 320 8.6 104080 69
2006-12-21 12:50 51°28.66 2°55.444 8.9 323 8.6 104080 69
2006-12-21 12:51 51°28.45 2°55.435 9.4 323 8.6 104080 69
2006-12-21 12:52 51°28.241 2°55.428 9.1 323 8.6 104070 69
2006-12-21 12:53 51°28.032 2°55.422 9.4 319 8.6 104080 70
2006-12-21 12:54 51°27.822 2°55.416 9.2 320 8.6 104080 70
2006-12-21 12:55 51°27.612 2°55.411 8.8 322 8.6 104080 69
2006-12-21 12:56 51°27.404 2°55.411 9.2 319 8.6 104070 69
2006-12-21 12:57 51°27.199 2°55.402 8.8 318 8.6 104080 70
2006-12-21 12:58 51°26.997 2°55.372 9.1 319 8.5 104080 70
2006-12-21 12:59 51°26.795 2°55.339 9.3 318 8.5 104080 69
2006-12-21 13:00 51°26.596 2°55.293 8.4 320 8.5 104080 69
2006-12-21 13:01 51°26.397 2°55.236 8.8 319 8.5 104080 70
2006-12-21 13:02 51°26.198 2°55.171 9.2 317 8.5 104080 70
2006-12-21 13:03 51°25.997 2°55.11 8.9 317 8.5 104080 70
2006-12-21 13:04 51°25.797 2°55.046 9.3 315 8.5 104080 70
2006-12-21 13:05 51°25.59 2°55.007 8.2 320 8.5 104080 69
2006-12-21 13:06 51°25.383 2°54.967 9 319 8.5 104070 70
2006-12-21 13:07 51°25.175 2°54.932 9.1 319 8.5 104080 70
2006-12-21 13:08 51°24.967 2°54.895 8.6 316 8.5 104080 69
2006-12-21 13:09 51°24.759 2°54.856 8.1 319 8.5 104080 70
2006-12-21 13:10 51°24.551 2°54.819 9.6 318 8.5 104070 69
2006-12-21 13:11 51°24.345 2°54.785 9.1 319 8.5 104070 70
2006-12-21 13:12 51°24.14 2°54.75 8.8 316 8.5 104070 70
2006-12-21 13:13 51°23.937 2°54.712 8 318 8.5 104070 70
2006-12-21 13:14 51°23.733 2°54.676 8.8 317 8.5 104070 71
2006-12-21 13:15 51°23.53 2°54.638 9.5 319 8.5 104070 70
2006-12-21 13:16 51°23.327 2°54.597 8.6 320 8.5 104070 70
2006-12-21 13:17 51°23.124 2°54.565 9 318 8.5 104070 69
2006-12-21 13:18 51°22.923 2°54.522 8.2 316 8.4 104080 69
2006-12-21 13:19 51°22.724 2°54.464 8.1 319 8.4 104080 69
2006-12-21 13:20 51°22.526 2°54.404 8.3 317 8.4 104080 69
2006-12-21 13:21 51°22.327 2°54.342 8.1 324 8.4 104080 69
2006-12-21 13:22 51°22.126 2°54.276 8.1 316 8.4 104080 69
2006-12-21 13:23 51°21.922 2°54.208 8.2 320 8.4 104080 70
2006-12-21 13:24 51°21.717 2°54.14 7.9 320 8.4 104090 69
2006-12-21 13:25 51°21.513 2°54.067 7.7 318 8.4 104090 69
2006-12-21 13:26 51°21.307 2°53.994 8.6 320 8.4 104090 68
2006-12-21 13:27 51°21.104 2°53.921 8.3 319 8.4 104100 68
2006-12-21 13:28 51°20.901 2°53.853 7.5 320 8.4 104090 67
2006-12-21 13:29 51°20.702 2°53.786 7.9 318 8.4 104100 68
2006-12-21 13:30 51°20.504 2°53.719 7.3 323 8.4 104100 68
2006-12-21 13:31 51°20.308 2°53.646 7.2 322 8.4 104100 68
2006-12-21 13:32 51°20.111 2°53.571 7.2 323 8.4 104100 68
2006-12-21 13:33 51°19.913 2°53.478 7.6 321 8.4 104100 69
2006-12-21 13:34 51°19.715 2°53.383 7.6 319 8.4 104100 69
2006-12-21 13:35 51°19.517 2°53.289 7.4 322 8.4 104100 68
2006-12-21 13:36 51°19.322 2°53.193 7.6 320 8.4 104100 68
2006-12-21 13:37 51°19.124 2°53.097 7.1 321 8.4 104100 67
2006-12-21 13:38 51°18.926 2°52.996 7.5 320 8.4 104100 68
2006-12-21 13:39 51°18.726 2°52.895 6.2 318 8.4 104110 69
2006-12-21 13:40 51°18.528 2°52.792 6.3 321 8.4 104110 68
2006-12-21 13:41 51°18.327 2°52.695 6.2 318 8.4 104100 68
2006-12-21 13:42 51°18.126 2°52.613 7.6 316 8.4 104100 68
2006-12-21 13:43 51°17.919 2°52.571 7.2 319 8.4 104100 68
2006-12-21 13:44 51°17.711 2°52.536 7.5 320 8.4 104100 67
2006-12-21 13:45 51°17.501 2°52.523 7.3 322 8.4 104110 67
2006-12-21 13:46 51°17.289 2°52.562 7.3 321 8.4 104100 69
2006-12-21 13:47 51°17.078 2°52.632 7.6 317 8.4 104100 70
2006-12-21 13:48 51°16.868 2°52.711 7.1 316 8.4 104110 69
2006-12-21 13:49 51°16.659 2°52.8 7.9 23 8.4 104100 68
2006-12-21 13:50 51°16.452 2°52.911 8.1 320 8.4 104100 68
2006-12-21 13:51 51°16.249 2°53.04 7.9 320 8.4 104100 67
2006-12-21 13:52 51°16.046 2°53.166 8.4 315 8.4 104100 67
2006-12-21 13:53 51°15.842 2°53.3 6.9 324 8.4 104100 67
2006-12-21 13:54 51°15.641 2°53.446 7.2 325 8.4 104100 66
2006-12-21 13:55 51°15.445 2°53.615 6.3 326 8.4 104100 66
2006-12-21 13:56 51°15.256 2°53.804 7.5 322 8.4 104100 66
2006-12-21 13:57 51°15.072 2°54.008 7.3 329 8.4 104100 67
2006-12-21 13:58 51°14.887 2°54.21 7 325 8.4 104100 67
2006-12-21 13:59 51°14.728 2°54.444 6.5 323 8.4 104100 66
2006-12-21 14:00 51°14.572 2°54.697 7.2 321 8.4 104100 67
2006-12-21 14:01 51°14.425 2°54.971 8 320 8.4 104100 67
2006-12-21 14:02 51°14.283 2°55.226 5.9 325 8.4 104110 67
2006-12-21 14:03 51°14.15 2°55.387 4 326 8.4 104110 67
2006-12-21 14:04 51°14.027 2°55.492 3.1 322 8.3 104110 67
2006-12-21 14:05 51°13.929 2°55.57 2.3 320 8.4 104110 67
2006-12-21 14:06 51°13.839 2°55.642 2.5 321 8.3 104110 68
2006-12-21 14:07 51°13.751 2°55.725 2.6 323 8.3 104110 68
2006-12-21 14:08 51°13.677 2°55.842 3.2 320 8.3 104110 67
2006-12-21 14:09 51°13.63 2°55.963 2.9 319 8.3 104110 67